TimeIDT,TemperatureF,Dew PointF,Humidity,Sea Level PressureIn,VisibilityMPH,Wind Direction,Wind SpeedMPH,Gust SpeedMPH,PrecipitationIn,Events,Conditions,WindDirDegrees,DateUTC
12:20 AM,71.6,64.4,78,29.86,-9999.0,West,4.6,-,N/A,,Clear,260,2013-05-23 21:20:00
12:50 AM,71.6,64.4,78,29.86,-9999.0,West,4.6,-,N/A,,Clear,270,2013-05-23 21:50:00
1:20 AM,71.6,64.4,78,29.86,-9999.0,Variable,2.3,-,N/A,,Clear,0,2013-05-23 22:20:00
1:50 AM,71.6,64.4,78,29.86,-9999.0,Variable,3.5,-,N/A,,Clear,0,2013-05-23 22:50:00
2:20 AM,69.8,62.6,78,29.86,-9999.0,SE,8.1,-,N/A,,Clear,130,2013-05-23 23:20:00
2:50 AM,69.8,62.6,78,29.86,-9999.0,South,6.9,-,N/A,,Clear,170,2013-05-23 23:50:00
3:00 AM,69,62,74,29.87,6,South,6.9,,,,Clear,170,2013-05-24 00:00:00
3:20 AM,68.0,62.6,83,29.86,5.6,SSW,4.6,-,N/A,,Clear,200,2013-05-24 00:20:00
3:50 AM,68.0,62.6,83,29.86,5.6,Variable,1.2,-,N/A,,Clear,0,2013-05-24 00:50:00
4:20 AM,68.0,62.6,83,29.86,5.6,Variable,2.3,-,N/A,,Clear,0,2013-05-24 01:20:00
4:50 AM,68.0,60.8,78,29.86,-9999.0,SE,6.9,-,N/A,,Clear,140,2013-05-24 01:50:00
5:20 AM,68.0,62.6,83,29.86,6.2,SSE,9.2,-,N/A,,Partly Cloudy,150,2013-05-24 02:20:00
5:35 AM,66.2,64.4,94,29.86,1.9,South,8.1,-,N/A,,Mostly Cloudy,170,2013-05-24 02:35:00
5:50 AM,66.2,64.4,94,29.86,1.9,SSE,6.9,-,N/A,,Scattered Clouds,160,2013-05-24 02:50:00
6:05 AM,68.0,64.4,88,29.86,3.1,SSE,4.6,-,N/A,,Clear,160,2013-05-24 03:05:00
6:20 AM,68.0,64.4,88,29.86,2.5,Variable,3.5,-,N/A,,Clear,0,2013-05-24 03:20:00
6:35 AM,66.2,64.4,94,29.86,0.2,South,4.6,-,N/A,,Mostly Cloudy,190,2013-05-24 03:35:00
6:50 AM,66.2,64.4,94,29.86,0.2,South,4.6,-,N/A,Fog,Fog,180,2013-05-24 03:50:00
7:05 AM,68.0,64.4,88,29.86,0.5,South,4.6,-,N/A,,Mostly Cloudy,170,2013-05-24 04:05:00
7:20 AM,68.0,64.4,88,29.86,2.5,Variable,2.3,-,N/A,,Partly Cloudy,0,2013-05-24 04:20:00
7:35 AM,69.8,64.4,83,29.86,2.5,Variable,2.3,-,N/A,,Haze,0,2013-05-24 04:35:00
7:50 AM,71.6,64.4,78,29.86,3.7,Variable,2.3,-,N/A,,Clear,0,2013-05-24 04:50:00
8:20 AM,75.2,64.4,69,29.86,5.0,Variable,3.5,-,N/A,,Clear,0,2013-05-24 05:20:00
8:50 AM,77.0,64.4,65,29.89,5.0,WSW,4.6,-,N/A,,Clear,250,2013-05-24 05:50:00
9:00 AM,77,65,57,29.88,5,WSW,4.6,,,,Haze,250,2013-05-24 06:00:00
9:20 AM,78.8,64.4,61,29.89,5.6,WSW,5.8,-,N/A,,Clear,250,2013-05-24 06:20:00
9:50 AM,80.6,62.6,54,29.86,-9999.0,West,5.8,-,N/A,,Clear,260,2013-05-24 06:50:00
10:20 AM,82.4,64.4,54,29.86,-9999.0,West,5.8,-,N/A,,Clear,260,2013-05-24 07:20:00
10:50 AM,84.2,66.2,55,29.89,-9999.0,WNW,11.5,-,N/A,,Clear,290,2013-05-24 07:50:00
11:20 AM,80.6,68.0,65,29.89,-9999.0,WNW,12.7,-,N/A,,Clear,290,2013-05-24 08:20:00
11:50 AM,80.6,68.0,65,29.89,-9999.0,West,11.5,-,N/A,,Clear,270,2013-05-24 08:50:00
12:20 PM,82.4,68.0,62,29.89,-9999.0,WNW,9.2,-,N/A,,Clear,300,2013-05-24 09:20:00
12:50 PM,82.4,66.2,58,29.89,-9999.0,WNW,8.1,-,N/A,,Clear,290,2013-05-24 09:50:00
1:20 PM,86.0,62.6,45,29.86,-9999.0,Variable,3.5,-,N/A,,Clear,0,2013-05-24 10:20:00
1:50 PM,89.6,57.2,33,29.86,-9999.0,NW,5.8,-,N/A,,Clear,320,2013-05-24 10:50:00
2:20 PM,89.6,57.2,33,29.86,-9999.0,NW,8.1,-,N/A,,Clear,320,2013-05-24 11:20:00
2:50 PM,87.8,60.8,40,29.83,-9999.0,WNW,15.0,-,N/A,,Clear,300,2013-05-24 11:50:00
3:00 PM,90,61,28,29.85,6,WNW,15.0,,,,Clear,300,2013-05-24 12:00:00
3:20 PM,87.8,62.6,43,29.83,-9999.0,NW,13.8,-,N/A,,Clear,320,2013-05-24 12:20:00
3:50 PM,87.8,60.8,40,29.83,-9999.0,North,11.5,-,N/A,,Clear,350,2013-05-24 12:50:00
4:20 PM,91.4,53.6,28,29.83,-9999.0,North,10.4,-,N/A,,Clear,350,2013-05-24 13:20:00
4:50 PM,86.0,60.8,43,29.83,-9999.0,NW,16.1,-,N/A,,Clear,310,2013-05-24 13:50:00
5:20 PM,86.0,57.2,37,29.83,-9999.0,NNW,13.8,-,N/A,,Clear,340,2013-05-24 14:20:00
5:50 PM,84.2,55.4,37,29.86,-9999.0,North,13.8,-,N/A,,Clear,350,2013-05-24 14:50:00
6:20 PM,84.2,57.2,40,29.86,-9999.0,North,12.7,-,N/A,,Clear,350,2013-05-24 15:20:00
6:50 PM,82.4,57.2,42,29.86,-9999.0,NNW,6.9,-,N/A,,Clear,330,2013-05-24 15:50:00
7:20 PM,80.6,62.6,54,29.86,-9999.0,WNW,10.4,-,N/A,,Clear,300,2013-05-24 16:20:00
7:50 PM,78.8,64.4,61,29.86,-9999.0,NNW,12.7,-,N/A,,Clear,330,2013-05-24 16:50:00
8:20 PM,78.8,60.8,54,29.86,-9999.0,NNE,4.6,-,N/A,,Clear,20,2013-05-24 17:20:00
8:50 PM,78.8,62.6,57,29.86,-9999.0,East,4.6,-,N/A,,Clear,90,2013-05-24 17:50:00
9:00 PM,78,63,50,29.87,6,Calm,Calm,,,,Clear,,2013-05-24 18:00:00
9:20 PM,78.8,62.6,57,29.86,-9999.0,Calm,Calm,-,N/A,,Clear,0,2013-05-24 18:20:00
9:50 PM,78.8,62.6,57,29.86,-9999.0,Variable,1.2,-,N/A,,Clear,0,2013-05-24 18:50:00
10:20 PM,77.0,60.8,57,29.86,-9999.0,Variable,2.3,-,N/A,,Clear,0,2013-05-24 19:20:00
10:50 PM,75.2,60.8,61,29.86,-9999.0,WSW,4.6,-,N/A,,Clear,250,2013-05-24 19:50:00
11:20 PM,75.2,60.8,61,29.86,-9999.0,Variable,3.5,-,N/A,,Clear,0,2013-05-24 20:20:00
11:50 PM,75.2,66.2,73,29.86,-9999.0,West,12.7,-,N/A,,Clear,280,2013-05-24 20:50:00